This is the latest recevied weather packets stored in our database for station/object IZ1UQG-2. If no packets are shown the sender has not sent any weather packets the latest 10 day(s).
| Time | Temp. | Humidity | Pressure | Rain* | Wind** | Luminosity | Snow |
|---|---|---|---|---|---|---|---|
| 1777702865 | 11.67° C | 75% | 1025.5 hPa | 0 mm | - | 207 W/m² | - |
| 1777702444 | 11.67° C | 77% | 1025.5 hPa | 0 mm | - | 179 W/m² | - |
| 1777702324 | 11.11° C | 76% | 1025.4 hPa | 0 mm | - | 176 W/m² | - |
| 1777702145 | 11.11° C | 76% | 1025.6 hPa | 0 mm | - | 169 W/m² | - |
| 1777701124 | 11.11° C | 77% | 1025.7 hPa | 0 mm | - | 134 W/m² | - |
| 1777700412 | 11.11° C | 77% | 1025.6 hPa | 0 mm | - | 137 W/m² | - |
| 1777700284 | 11.11° C | 77% | 1025.6 hPa | 0 mm | - | 135 W/m² | - |
| 1777700164 | 11.11° C | 77% | 1025.6 hPa | 0 mm | - | 128 W/m² | - |
| 1777700044 | 11.11° C | 77% | 1025.7 hPa | 0 mm | - | 121 W/m² | - |
| 1777699684 | 11.11° C | 78% | 1025.7 hPa | 0 mm | - | 118 W/m² | - |
| 1777698964 | 10.56° C | 77% | 1025.6 hPa | 0 mm | - | 97 W/m² | - |
| 1777698904 | 11.11° C | 78% | 1025.6 hPa | 0 mm | - | 98 W/m² | - |
| 1777698611 | 10.56° C | 78% | 1025.7 hPa | 0 mm | - | 88 W/m² | - |
| 1777697824 | 11.11° C | 77% | 1025.6 hPa | 0 mm | - | 63 W/m² | - |
| 1777696445 | 10.56° C | 79% | 1025.3 hPa | 0 mm | - | 26 W/m² | - |
| 1777695844 | 10.56° C | 77% | 1025.1 hPa | 0 mm | - | 14 W/m² | - |
| 1777695725 | 10.56° C | 77% | 1025.2 hPa | 0 mm | - | 12 W/m² | - |
| 1777695618 | 11.11° C | 78% | 1025.1 hPa | 0 mm | - | 11 W/m² | - |
| 1777695544 | 10.56° C | 78% | 1025.2 hPa | 0 mm | - | 11 W/m² | - |
| 1777693924 | 10.56° C | 77% | 1025.1 hPa | 0 mm | - | 0 W/m² | - |
| 1777693505 | 10.56° C | 78% | 1025 hPa | 0 mm | - | 0 W/m² | - |
| 1777693444 | 10.56° C | 78% | 1025 hPa | 0 mm | - | 0 W/m² | - |
| 1777693385 | 10.56° C | 78% | 1025 hPa | 0 mm | - | 0 W/m² | - |
| 1777692365 | 11.11° C | 77% | 1024.9 hPa | 0 mm | - | 0 W/m² | - |
| 1777692304 | 10.56° C | 77% | 1024.9 hPa | 0 mm | - | 0 W/m² | - |
* Rain latest hour (hover to see other rain measurements)
** Current wind speed in m/s (hover to see current wind gust speed)